Location: Mountain View
(37.3861°N, 122.0839°W)
Time: 14:55:57
(UTC-07:00)

Envisat - Visible Passes

Search period start: 24 April 2019 00:00
Search period end: 04 May 2019 00:00
Orbit: 764 x 766 km, 98.2° (Epoch: 24 April)

Date Brightness Start Highest point End Pass type
(mag) Time Alt. Az. Time Alt. Az. Time Alt. Az.
24 Apr 6.1 21:17:21 10° WSW 21:18:32 11° W 21:19:43 10° WNW visible
25 Apr 5.3 20:37:14 10° SSW 20:41:26 26° W 20:45:40 10° NW visible
27 Apr 5.8 21:04:30 10° WSW 21:07:11 14° W 21:09:53 10° WNW visible
28 Apr 4.8 20:25:36 10° SSW 20:30:09 33° W 20:34:44 10° NNW visible
30 Apr 5.7 20:52:22 10° SW 20:55:51 19° W 20:59:21 10° NW visible
03 May 5.4 20:40:31 10° SSW 20:44:32 24° W 20:48:36 10° NW visible
